Time,TemperatureF,DewpointF,PressureIn,WindDirection,WindDirectionDegrees,WindSpeedMPH,WindSpeedGustMPH,Humidity,HourlyPrecipIn,Conditions,Clouds,dailyrainin,SoftwareType,DateUTC
2013-06-01 00:12:00,36.0,30.0,-100.00,South,190,3.0,4.0,78,0.00,,,0.00,,2013-06-01 06:12:00,
2013-06-01 00:22:00,36.0,30.0,-100.00,South,190,3.0,4.0,78,0.00,,,0.00,,2013-06-01 06:22:00,
2013-06-01 00:32:00,36.0,30.0,-100.00,South,190,3.0,4.0,78,0.00,,,0.00,,2013-06-01 06:32:00,
2013-06-01 00:42:00,36.0,30.0,-100.00,South,190,3.0,4.0,78,0.00,,,0.00,,2013-06-01 06:42:00,
2013-06-01 00:51:00,35.0,31.0,-100.00,WSW,253,2.0,6.0,84,0.00,,,0.00,,2013-06-01 06:51:00,
2013-06-01 01:11:00,35.0,31.0,-100.00,WSW,253,2.0,6.0,84,0.00,,,0.00,,2013-06-01 07:11:00,
2013-06-01 01:21:00,35.0,31.0,-100.00,WSW,253,2.0,6.0,84,0.00,,,0.00,,2013-06-01 07:21:00,
2013-06-01 01:31:00,35.0,31.0,-100.00,WSW,253,2.0,6.0,84,0.00,,,0.00,,2013-06-01 07:31:00,
2013-06-01 01:42:00,35.0,31.0,-100.00,WSW,253,2.0,6.0,84,0.00,,,0.00,,2013-06-01 07:42:00,
2013-06-01 01:51:00,33.0,28.0,-100.00,SW,225,2.0,3.0,83,0.00,,,0.00,,2013-06-01 07:51:00,
2013-06-01 02:11:00,33.0,28.0,-100.00,SW,225,2.0,3.0,83,0.00,,,0.00,,2013-06-01 08:11:00,
2013-06-01 02:21:00,33.0,28.0,-100.00,SW,225,2.0,3.0,83,0.00,,,0.00,,2013-06-01 08:21:00,
2013-06-01 02:32:00,33.0,28.0,-100.00,SW,225,2.0,3.0,83,0.00,,,0.00,,2013-06-01 08:32:00,
2013-06-01 02:42:00,33.0,28.0,-100.00,SW,225,2.0,3.0,83,0.00,,,0.00,,2013-06-01 08:42:00,
2013-06-01 02:51:00,30.0,27.0,-100.00,WSW,253,1.0,3.0,88,0.00,,,0.00,,2013-06-01 08:51:00,
2013-06-01 03:12:00,30.0,27.0,-100.00,WSW,253,1.0,3.0,88,0.00,,,0.00,,2013-06-01 09:12:00,
2013-06-01 03:21:00,30.0,27.0,-100.00,WSW,253,1.0,3.0,88,0.00,,,0.00,,2013-06-01 09:21:00,
2013-06-01 03:33:00,30.0,27.0,-100.00,WSW,253,1.0,3.0,88,0.00,,,0.00,,2013-06-01 09:33:00,
2013-06-01 03:42:00,30.0,27.0,-100.00,WSW,253,1.0,3.0,88,0.00,,,0.00,,2013-06-01 09:42:00,
2013-06-01 03:51:00,30.0,28.0,-100.00,East,100,3.0,6.0,92,0.00,,,0.00,,2013-06-01 09:51:00,
2013-06-01 04:12:00,30.0,28.0,-100.00,East,100,3.0,6.0,92,0.00,,,0.00,,2013-06-01 10:12:00,
2013-06-01 04:22:00,30.0,28.0,-100.00,East,100,3.0,6.0,92,0.00,,,0.00,,2013-06-01 10:22:00,
2013-06-01 04:32:00,30.0,28.0,-100.00,East,100,3.0,6.0,92,0.00,,,0.00,,2013-06-01 10:32:00,
2013-06-01 04:42:00,30.0,28.0,-100.00,East,100,3.0,6.0,92,0.00,,,0.00,,2013-06-01 10:42:00,
2013-06-01 04:51:00,30.0,27.0,-100.00,ENE,67,8.0,11.0,87,0.00,,,0.00,,2013-06-01 10:51:00,
2013-06-01 05:11:00,30.0,27.0,-100.00,ENE,67,8.0,11.0,87,0.00,,,0.00,,2013-06-01 11:11:00,
2013-06-01 05:21:00,30.0,27.0,-100.00,ENE,67,8.0,11.0,87,0.00,,,0.00,,2013-06-01 11:21:00,
2013-06-01 05:32:00,30.0,27.0,-100.00,ENE,67,8.0,11.0,87,0.00,,,0.00,,2013-06-01 11:32:00,
2013-06-01 05:42:00,30.0,27.0,-100.00,ENE,67,8.0,11.0,87,0.00,,,0.00,,2013-06-01 11:42:00,
2013-06-01 05:51:00,30.0,26.0,-100.00,ENE,71,8.0,12.0,85,0.00,,,0.00,,2013-06-01 11:51:00,
2013-06-01 06:12:00,30.0,26.0,-100.00,ENE,71,8.0,12.0,85,0.00,,,0.00,,2013-06-01 12:12:00,
2013-06-01 06:21:00,30.0,26.0,-100.00,ENE,71,8.0,12.0,85,0.00,,,0.00,,2013-06-01 12:21:00,
2013-06-01 06:32:00,30.0,26.0,-100.00,ENE,71,8.0,12.0,85,0.00,,,0.00,,2013-06-01 12:32:00,
2013-06-01 06:41:00,30.0,26.0,-100.00,ENE,71,8.0,12.0,85,0.00,,,0.00,,2013-06-01 12:41:00,
2013-06-01 06:51:00,30.0,26.0,-100.00,ENE,67,7.0,13.0,84,0.00,,,0.00,,2013-06-01 12:51:00,
2013-06-01 07:11:00,30.0,26.0,-100.00,ENE,67,7.0,13.0,84,0.00,,,0.00,,2013-06-01 13:11:00,
2013-06-01 07:22:00,30.0,26.0,-100.00,ENE,67,7.0,13.0,84,0.00,,,0.00,,2013-06-01 13:22:00,
2013-06-01 07:32:00,30.0,26.0,-100.00,ENE,67,7.0,13.0,84,0.00,,,0.00,,2013-06-01 13:32:00,
2013-06-01 07:42:00,30.0,26.0,-100.00,ENE,67,7.0,13.0,84,0.00,,,0.00,,2013-06-01 13:42:00,
2013-06-01 07:51:00,30.0,26.0,-100.00,ENE,78,3.0,11.0,85,0.00,,,0.00,,2013-06-01 13:51:00,
2013-06-01 08:11:00,30.0,26.0,-100.00,ENE,78,3.0,11.0,85,0.00,,,0.00,,2013-06-01 14:11:00,
2013-06-01 08:21:00,30.0,26.0,-100.00,ENE,78,3.0,11.0,85,0.00,,,0.00,,2013-06-01 14:21:00,
2013-06-01 08:32:00,30.0,26.0,-100.00,ENE,78,3.0,11.0,85,0.00,,,0.00,,2013-06-01 14:32:00,
2013-06-01 08:42:00,30.0,26.0,-100.00,ENE,78,3.0,11.0,85,0.00,,,0.00,,2013-06-01 14:42:00,
2013-06-01 08:51:00,43.0,32.0,-100.00,SSE,157,3.0,4.0,64,0.00,,,0.00,,2013-06-01 14:51:00,
2013-06-01 09:11:00,43.0,32.0,-100.00,SSE,157,3.0,4.0,64,0.00,,,0.00,,2013-06-01 15:11:00,
2013-06-01 09:21:00,43.0,32.0,-100.00,SSE,157,3.0,4.0,64,0.00,,,0.00,,2013-06-01 15:21:00,
2013-06-01 09:33:00,43.0,32.0,-100.00,SSE,157,3.0,4.0,64,0.00,,,0.00,,2013-06-01 15:33:00,
2013-06-01 09:43:00,43.0,32.0,-100.00,SSE,157,3.0,4.0,64,0.00,,,0.00,,2013-06-01 15:43:00,
2013-06-01 09:51:00,51.0,33.0,-100.00,SSW,202,4.0,7.0,49,0.00,,,0.00,,2013-06-01 15:51:00,
2013-06-01 10:12:00,51.0,33.0,-100.00,SSW,202,4.0,7.0,49,0.00,,,0.00,,2013-06-01 16:12:00,
2013-06-01 10:23:00,51.0,33.0,-100.00,SSW,202,4.0,7.0,49,0.00,,,0.00,,2013-06-01 16:23:00,
2013-06-01 10:33:00,51.0,33.0,-100.00,SSW,202,4.0,7.0,49,0.00,,,0.00,,2013-06-01 16:33:00,
2013-06-01 10:42:00,51.0,33.0,-100.00,SSW,202,4.0,7.0,49,0.00,,,0.00,,2013-06-01 16:42:00,
2013-06-01 10:51:00,56.0,31.0,-100.00,SSE,158,4.0,8.0,39,0.00,,,0.00,,2013-06-01 16:51:00,
2013-06-01 11:11:00,56.0,31.0,-100.00,SSE,158,4.0,8.0,39,0.00,,,0.00,,2013-06-01 17:11:00,
2013-06-01 11:22:00,56.0,31.0,-100.00,SSE,158,4.0,8.0,39,0.00,,,0.00,,2013-06-01 17:22:00,
2013-06-01 11:32:00,56.0,31.0,-100.00,SSE,158,4.0,8.0,39,0.00,,,0.00,,2013-06-01 17:32:00,
2013-06-01 11:42:00,56.0,31.0,-100.00,SSE,158,4.0,8.0,39,0.00,,,0.00,,2013-06-01 17:42:00,
2013-06-01 11:51:00,61.0,28.0,-100.00,SW,215,4.0,13.0,28,0.00,,,0.00,,2013-06-01 17:51:00,
2013-06-01 12:12:00,61.0,28.0,-100.00,SW,215,4.0,13.0,28,0.00,,,0.00,,2013-06-01 18:12:00,
2013-06-01 12:21:00,61.0,28.0,-100.00,SW,215,4.0,13.0,28,0.00,,,0.00,,2013-06-01 18:21:00,
2013-06-01 12:32:00,61.0,28.0,-100.00,SW,215,4.0,13.0,28,0.00,,,0.00,,2013-06-01 18:32:00,
2013-06-01 12:41:00,61.0,28.0,-100.00,SW,215,4.0,13.0,28,0.00,,,0.00,,2013-06-01 18:41:00,
2013-06-01 12:51:00,63.0,29.0,-100.00,SSW,192,5.0,13.0,27,0.00,,,0.00,,2013-06-01 18:51:00,
2013-06-01 13:11:00,63.0,29.0,-100.00,SSW,192,5.0,13.0,27,0.00,,,0.00,,2013-06-01 19:11:00,
2013-06-01 13:21:00,63.0,29.0,-100.00,SSW,192,5.0,13.0,27,0.00,,,0.00,,2013-06-01 19:21:00,
2013-06-01 13:32:00,63.0,29.0,-100.00,SSW,192,5.0,13.0,27,0.00,,,0.00,,2013-06-01 19:32:00,
2013-06-01 13:41:00,63.0,29.0,-100.00,SSW,192,5.0,13.0,27,0.00,,,0.00,,2013-06-01 19:41:00,
2013-06-01 13:51:00,65.0,28.0,-100.00,SSW,194,5.0,11.0,25,0.00,,,0.00,,2013-06-01 19:51:00,
2013-06-01 14:12:00,65.0,28.0,-100.00,SSW,194,5.0,11.0,25,0.00,,,0.00,,2013-06-01 20:12:00,
2013-06-01 14:21:00,65.0,28.0,-100.00,SSW,194,5.0,11.0,25,0.00,,,0.00,,2013-06-01 20:21:00,
2013-06-01 14:32:00,65.0,28.0,-100.00,SSW,194,5.0,11.0,25,0.00,,,0.00,,2013-06-01 20:32:00,
2013-06-01 14:41:00,65.0,28.0,-100.00,SSW,194,5.0,11.0,25,0.00,,,0.00,,2013-06-01 20:41:00,
2013-06-01 14:51:00,66.0,28.0,-100.00,SSW,198,5.0,11.0,24,0.00,,,0.00,,2013-06-01 20:51:00,
2013-06-01 15:11:00,66.0,28.0,-100.00,SSW,198,5.0,11.0,24,0.00,,,0.00,,2013-06-01 21:11:00,
2013-06-01 15:21:00,66.0,28.0,-100.00,SSW,198,5.0,11.0,24,0.00,,,0.00,,2013-06-01 21:21:00,
2013-06-01 15:33:00,66.0,28.0,-100.00,SSW,198,5.0,11.0,24,0.00,,,0.00,,2013-06-01 21:33:00,
2013-06-01 15:42:00,66.0,28.0,-100.00,SSW,198,5.0,11.0,24,0.00,,,0.00,,2013-06-01 21:42:00,
2013-06-01 15:51:00,68.0,28.0,-100.00,West,259,6.0,12.0,22,0.00,,,0.00,,2013-06-01 21:51:00,
2013-06-01 16:12:00,68.0,28.0,-100.00,West,259,6.0,12.0,22,0.00,,,0.00,,2013-06-01 22:12:00,
2013-06-01 16:23:00,68.0,28.0,-100.00,West,259,6.0,12.0,22,0.00,,,0.00,,2013-06-01 22:23:00,
2013-06-01 16:33:00,68.0,28.0,-100.00,West,259,6.0,12.0,22,0.00,,,0.00,,2013-06-01 22:33:00,
2013-06-01 16:42:00,68.0,28.0,-100.00,West,259,6.0,12.0,22,0.00,,,0.00,,2013-06-01 22:42:00,
2013-06-01 16:51:00,68.0,29.0,-100.00,SW,231,8.0,13.0,23,0.00,,,0.00,,2013-06-01 22:51:00,
2013-06-01 17:11:00,68.0,29.0,-100.00,SW,231,8.0,13.0,23,0.00,,,0.00,,2013-06-01 23:11:00,
2013-06-01 17:21:00,68.0,29.0,-100.00,SW,231,8.0,13.0,23,0.00,,,0.00,,2013-06-01 23:21:00,
2013-06-01 17:32:00,68.0,29.0,-100.00,SW,231,8.0,13.0,23,0.00,,,0.00,,2013-06-01 23:32:00,
2013-06-01 17:42:00,68.0,29.0,-100.00,SW,231,8.0,13.0,23,0.00,,,0.00,,2013-06-01 23:42:00,
2013-06-01 17:51:00,70.0,32.0,-100.00,West,267,4.0,14.0,24,0.00,,,0.00,,2013-06-01 23:51:00,
2013-06-01 18:11:00,70.0,32.0,-100.00,West,267,4.0,14.0,24,0.00,,,0.00,,2013-06-02 00:11:00,
2013-06-01 18:21:00,70.0,32.0,-100.00,West,267,4.0,14.0,24,0.00,,,0.00,,2013-06-02 00:21:00,
2013-06-01 18:32:00,70.0,32.0,-100.00,West,267,4.0,14.0,24,0.00,,,0.00,,2013-06-02 00:32:00,
2013-06-01 18:41:00,70.0,32.0,-100.00,West,267,4.0,14.0,24,0.00,,,0.00,,2013-06-02 00:41:00,
2013-06-01 18:51:00,69.0,30.0,-100.00,WSW,239,6.0,13.0,23,0.00,,,0.00,,2013-06-02 00:51:00,
2013-06-01 19:11:00,69.0,30.0,-100.00,WSW,239,6.0,13.0,23,0.00,,,0.00,,2013-06-02 01:11:00,
2013-06-01 19:21:00,69.0,30.0,-100.00,WSW,239,6.0,13.0,23,0.00,,,0.00,,2013-06-02 01:21:00,
2013-06-01 19:32:00,69.0,30.0,-100.00,WSW,239,6.0,13.0,23,0.00,,,0.00,,2013-06-02 01:32:00,
2013-06-01 19:41:00,69.0,30.0,-100.00,WSW,239,6.0,13.0,23,0.00,,,0.00,,2013-06-02 01:41:00,
2013-06-01 19:51:00,67.0,30.0,-100.00,WSW,255,4.0,12.0,25,0.00,,,0.00,,2013-06-02 01:51:00,
2013-06-01 20:12:00,67.0,30.0,-100.00,WSW,255,4.0,12.0,25,0.00,,,0.00,,2013-06-02 02:12:00,
2013-06-01 20:21:00,67.0,30.0,-100.00,WSW,255,4.0,12.0,25,0.00,,,0.00,,2013-06-02 02:21:00,
2013-06-01 20:32:00,67.0,30.0,-100.00,WSW,255,4.0,12.0,25,0.00,,,0.00,,2013-06-02 02:32:00,
2013-06-01 20:41:00,67.0,30.0,-100.00,WSW,255,4.0,12.0,25,0.00,,,0.00,,2013-06-02 02:41:00,
2013-06-01 20:51:00,57.0,32.0,-100.00,SE,127,1.0,6.0,39,0.00,,,0.00,,2013-06-02 02:51:00,
2013-06-01 21:11:00,57.0,32.0,-100.00,SE,127,1.0,6.0,39,0.00,,,0.00,,2013-06-02 03:11:00,
2013-06-01 21:21:00,57.0,32.0,-100.00,SE,127,1.0,6.0,39,0.00,,,0.00,,2013-06-02 03:21:00,
2013-06-01 21:33:00,57.0,32.0,-100.00,SE,127,1.0,6.0,39,0.00,,,0.00,,2013-06-02 03:33:00,
2013-06-01 21:43:00,57.0,32.0,-100.00,SE,127,1.0,6.0,39,0.00,,,0.00,,2013-06-02 03:43:00,
2013-06-01 21:51:00,48.0,35.0,-100.00,East,79,1.0,7.0,61,0.00,,,0.00,,2013-06-02 03:51:00,
2013-06-01 22:13:00,48.0,35.0,-100.00,East,79,1.0,7.0,61,0.00,,,0.00,,2013-06-02 04:13:00,
2013-06-01 22:23:00,48.0,35.0,-100.00,East,79,1.0,7.0,61,0.00,,,0.00,,2013-06-02 04:23:00,
2013-06-01 22:33:00,48.0,35.0,-100.00,East,79,1.0,7.0,61,0.00,,,0.00,,2013-06-02 04:33:00,
2013-06-01 22:42:00,48.0,35.0,-100.00,East,79,1.0,7.0,61,0.00,,,0.00,,2013-06-02 04:42:00,
2013-06-01 22:51:00,47.0,33.0,-100.00,South,180,1.0,10.0,59,0.00,,,0.00,,2013-06-02 04:51:00,
2013-06-01 23:12:00,47.0,33.0,-100.00,South,180,1.0,10.0,59,0.00,,,0.00,,2013-06-02 05:12:00,
2013-06-01 23:22:00,47.0,33.0,-100.00,South,180,1.0,10.0,59,0.00,,,0.00,,2013-06-02 05:22:00,
2013-06-01 23:32:00,47.0,33.0,-100.00,South,180,1.0,10.0,59,0.00,,,0.00,,2013-06-02 05:32:00,
2013-06-01 23:42:00,47.0,33.0,-100.00,South,180,1.0,10.0,59,0.00,,,0.00,,2013-06-02 05:42:00,
2013-06-01 23:51:00,45.0,34.0,-100.00,ENE,68,6.0,11.0,64,0.00,,,0.00,,2013-06-02 05:51:00,